User: anonymous   Login
Location: Unspecified
(0.0000°N, 0.0000°E)
Time: 00:51:05
(UTC+00:00)
Language:

UCLSAT - Orbit

View from above orbital plane
View from above orbital plane
View from above satellite
View from above satellite

Ground track
Ground track

The orbit data is extracted from the following two-line orbital elements,

1 42765U 17036A   21023.40382983  .00001509  00000-0  64654-4 0  9990
2 42765  97.2723  77.4333 0010257 338.7492  21.3318 15.24241326200071
Epoch (UTC): 23 January 2021 09:41:30
Eccentricity: 0.0010257
inclination: 97.2723°
perigee height: 486 km
apogee height: 500 km
right ascension of ascending node: 77.4333°
argument of perigee: 338.7492°
revolutions per day: 15.24241326
mean anomaly at epoch: 21.3318°
orbit number at epoch: 20007

The dashed part of the orbit path shows where the satellite is in the earth's shadow,  

DLR